GW1429 Weather Reports


time (UTC)temp
F
wind
direction
speed
knots
gust
knots
rain 1hr
in
rain 24hr
in
rain mn
in
humidity
%
barometer
mb
20260507001630 62 26 6.1 8.7 0.00 0.00 0.00 83 1047.5
20260507001127 62 42 2.6 7.8 0.00 0.00 0.00 83 1047.4
20260507000623 62 14 6.1 7.8 0.00 0.00 0.00 83 1047.4
20260507000119 62 23 7.8 8.7 0.00 0.00 0.00 83 1047.6
20260506235616 62 27 5.2 7.8 0.00 0.00 0.00 83 1047.2
20260506235116 62 13 2.6 7.0 0.00 0.00 0.00 83 1047.1
20260506234614 62 90 1.7 10.4 0.00 0.00 0.00 83 1047.6
20260506234111 62 354 7.8 12.2 0.00 0.00 0.00 83 1047.4
20260506233608 62 41 1.7 8.7 0.00 0.00 0.00 83 1047.2
20260506233105 62 8 5.2 16.5 0.00 0.00 0.00 84 1047.0
20260506232601 62 334 9.6 12.2 0.00 0.00 0.00 84 1047.2
20260506232102 62 356 4.3 12.2 0.00 0.00 0.00 83 1047.1
20260506231559 62 353 5.2 11.3 0.00 0.00 0.00 84 1047.0
20260506231057 62 318 2.6 13.0 0.00 0.00 0.00 83 1047.3
20260506230553 62 41 6.1 11.3 0.00 0.00 0.00 83 1047.4
20260506230051 62 10 4.3 7.8 0.00 0.00 0.00 83 1047.1
20260506225548 62 15 10.4 10.4 0.00 0.00 0.00 84 1047.2
20260506225044 61 64 8.7 13.9 0.00 0.00 0.00 84 1047.4
20260506224541 61 12 8.7 10.4 0.00 0.00 0.00 84 1047.3
20260506224037 61 6 3.5 8.7 0.00 0.00 0.00 84 1047.4
20260506223533 61 12 5.2 13.9 0.00 0.00 0.00 85 1047.2
20260506223030 61 331 1.7 9.6 0.00 0.00 0.00 85 1046.9
20260506222527 61 6 6.1 11.3 0.00 0.00 0.00 85 1047.0
20260506222023 61 14 7.0 14.8 0.00 0.00 0.00 84 1047.0
20260506221521 61 25 7.8 12.2 0.00 0.00 0.00 84 1047.1
20260506221019 61 315 5.2 9.6 0.00 0.00 0.00 84 1047.1
20260506220514 61 39 6.1 10.4 0.00 0.00 0.00 85 1047.0
20260506220010 60 346 6.1 13.0 0.00 0.00 0.00 85 1047.4
20260506215507 60 58 11.3 14.8 0.00 0.00 0.00 85 1047.1
20260506215003 61 0 6.1 14.8 0.00 0.00 0.00 84 1046.9
20260506214500 61 332 7.8 13.9 0.00 0.00 0.00 84 1046.8
20260506213957 60 9 13.0 15.6 0.00 0.00 0.00 84 1047.0
20260506213455 61 347 4.3 14.8 0.00 0.00 0.00 84 1047.0
20260506212952 61 324 1.7 13.9 0.00 0.00 0.00 84 1047.2
20260506212448 61 354 6.1 13.9 0.00 0.00 0.00 83 1047.1
20260506211943 61 9 5.2 11.3 0.00 0.00 0.00 84 1047.2
20260506211439 61 26 8.7 14.8 0.00 0.00 0.00 83 1047.0
20260506210937 61 359 6.1 17.4 0.00 0.00 0.00 83 1047.2
20260506210433 61 28 7.0 13.0 0.00 0.00 0.00 84 1047.5
20260506205931 61 347 10.4 13.9 0.00 0.00 0.00 84 1047.3
20260506205426 61 321 12.2 19.1 0.00 0.00 0.00 83 1047.6
20260506204923 62 348 5.2 13.9 0.00 0.00 0.00 83 1047.3
20260506204421 62 330 9.6 15.6 0.00 0.00 0.00 82 1047.3
20260506203918 61 8 11.3 18.2 0.00 0.00 0.00 83 1047.3
20260506203414 61 325 7.0 22.6 0.00 0.00 0.00 83 1047.4
20260506202911 62 321 9.6 13.9 0.00 0.00 0.00 83 1047.6
20260506202409 61 358 8.7 20.9 0.00 0.00 0.00 83 1047.6
20260506201905 62 338 14.8 17.4 0.00 0.00 0.00 82 1047.4
20260506201403 63 25 13.9 16.5 0.00 0.00 0.00 81 1047.3
20260506200859 64 349 10.4 15.6 0.00 0.00 0.00 80 1047.3
20260506200355 63 345 11.3 20.0 0.00 0.00 0.00 81 1047.2
20260506195851 63 324 10.4 20.9 0.00 0.00 0.00 82 1047.1
20260506195349 64 335 9.6 15.6 0.00 0.00 0.00 81 1047.2
20260506194846 64 18 7.8 18.2 0.00 0.00 0.00 82 1047.1
20260506194343 64 14 8.7 15.6 0.00 0.00 0.00 82 1047.0
20260506193840 65 13 7.8 16.5 0.00 0.00 0.00 81 1047.0
20260506193336 64 354 10.4 17.4 0.00 0.00 0.00 82 1047.3
20260506192833 65 342 10.4 15.6 0.00 0.00 0.00 83 1047.1
20260506192330 65 349 12.2 18.2 0.00 0.00 0.00 83 1047.2
20260506191827 65 319 7.0 17.4 0.00 0.00 0.00 82 1047.1
20260506191323 65 21 2.6 19.1 0.00 0.00 0.00 84 1047.3
20260506190820 65 2 13.0 19.1 0.00 0.00 0.00 84 1047.2
20260506190316 66 352 11.3 17.4 0.00 0.00 0.00 83 1047.5
20260506185813 67 326 6.1 20.9 0.00 0.00 0.00 83 1047.3
20260506185310 68 337 8.7 17.4 0.00 0.00 0.00 81 1047.2
20260506184807 69 336 7.8 19.1 0.00 0.00 0.00 80 1047.0
20260506184304 71 1 7.8 14.8 0.00 0.00 0.00 78 1046.8
20260506183802 72 334 1.7 13.9 0.00 0.00 0.00 76 1046.7
20260506183257 73 43 3.5 8.7 0.00 0.00 0.00 75 1046.7
20260506182755 72 21 8.7 9.6 0.00 0.00 0.00 76 1046.6
20260506182252 73 354 4.3 7.8 0.00 0.00 0.00 75 1046.8
20260506181750 74 56 4.3 7.8 0.00 0.00 0.00 74 1046.3
20260506181247 74 8 5.2 7.8 0.00 0.00 0.00 72 1046.6
20260506180744 73 17 2.6 4.3 0.00 0.00 0.00 75 1046.7
20260506180240 73 18 4.3 4.3 0.00 0.00 0.00 74 1046.6
20260506175736 72 78 1.7 5.2 0.00 0.00 0.00 78 1046.8
20260506175233 70 83 0.9 8.7 0.00 0.00 0.00 79 1046.3
20260506174731 71 121 7.0 7.0 0.00 0.00 0.00 78 1046.5
20260506174227 69 78 4.3 7.0 0.00 0.00 0.00 80 1046.3
20260506173725 69 55 2.6 7.8 0.00 0.00 0.00 80 1046.3
20260506173222 68 119 3.5 9.6 0.00 0.00 0.00 82 1046.2
20260506172719 69 121 4.3 6.1 0.00 0.00 0.00 81 1046.1
20260506172215 67 342 0.9 6.1 0.00 0.00 0.00 83 1046.5
20260506171713 65 109 2.6 11.3 0.00 0.00 0.00 85 1046.3
20260506171210 67 111 10.4 14.8 0.00 0.00 0.00 83 1046.3
20260506170708 67 74 8.7 14.8 0.00 0.00 0.00 83 1046.3
20260506170204 66 116 8.7 9.6 0.00 0.00 0.00 84 1046.6
20260506165703 65 103 6.1 15.6 0.00 0.00 0.00 86 1046.7
20260506165159 65 126 9.6 11.3 0.00 0.00 0.00 86 1046.6
20260506164656 64 100 7.8 13.0 0.02 0.00 0.00 87 1046.6
20260506164154 64 113 3.5 13.0 0.02 0.00 0.00 89 1046.6
20260506163650 63 121 6.1 11.3 0.00 0.00 0.00 91 1046.8
20260506163145 62 138 2.6 7.8 0.00 0.00 0.00 91 1047.5
20260506162641 61 19 6.1 13.0 0.00 0.00 0.00 93 1047.4
20260506162139 62 55 7.0 7.8 0.00 0.00 0.00 94 1047.5
20260506161636 61 73 3.5 7.0 0.00 0.00 0.00 94 1047.5
20260506161133 60 20 5.2 8.7 0.00 0.00 0.00 94 1047.4
20260506160630 60 68 5.2 11.3 0.00 0.00 0.00 95 1047.9
20260506160127 60 348 0.9 15.6 0.00 0.00 0.00 95 1048.4
20260506155626 60 14 5.2 15.6 0.00 0.00 0.00 95 1048.1
20260506155122 62 6 13.0 25.2 0.00 0.00 0.00 94 1047.5
20260506153219 62 52 13.9 20.9 0.00 0.00 0.00 94 1047.7
20260506152715 63 7 4.3 16.5 0.00 0.00 0.00 93 1047.7
20260506152213 63 13 12.2 22.6 0.00 0.00 0.00 92 1047.6
20260506151712 64 359 8.7 20.9 0.00 0.00 0.00 92 1047.2
20260506151208 65 16 5.2 7.8 0.00 0.00 0.00 93 1047.0
20260506150704 64 20 9.6 13.9 0.00 0.00 0.00 93 1046.7
20260506150202 65 123 7.0 20.0 0.00 0.00 0.00 92 1046.8
20260506145659 65 51 11.3 20.9 0.00 0.00 0.00 92 1047.0
20260506145155 66 345 9.6 24.3 0.00 0.00 0.00 91 1046.4
20260506144653 67 349 7.8 19.1 0.00 0.00 0.00 90 1045.9
20260506144149 68 0 7.8 11.3 0.00 0.00 0.00 90 1045.7
20260506143647 69 21 6.1 18.2 0.00 0.00 0.00 89 1045.8
20260506143145 72 6 3.5 13.0 0.00 0.00 0.00 88 1045.5
20260506142643 77 7 2.6 3.5 0.00 0.00 0.00 88 1045.1
20260506142141 77 69 0.9 2.6 0.00 0.00 0.00 89 1044.8
20260506141638 77 168 0.9 2.6 0.00 0.00 0.00 89 1044.7
20260506141136 76 0 0.0 3.5 0.00 0.00 0.00 90 1044.9
20260506140633 76 139 5.2 5.2 0.00 0.00 0.00 90 1045.0
20260506140131 76 170 1.7 5.2 0.00 0.00 0.00 90 1044.7
20260506135627 76 99 0.0 2.6 0.00 0.00 0.00 91 1045.1
20260506135124 76 123 0.0 1.7 0.00 0.00 0.00 91 1045.3
20260506134620 75 151 4.3 4.3 0.00 0.00 0.00 92 1044.4
20260506134116 75 147 1.7 4.3 0.00 0.00 0.00 92 1044.2
20260506133614 75 134 3.5 3.5 0.00 0.00 0.00 92 1044.6
20260506133110 75 164 1.7 4.3 0.00 0.00 0.00 92 1044.7
20260506132608 75 142 2.6 4.3 0.00 0.00 0.00 92 1044.3
20260506132105 76 145 2.6 7.0 0.00 0.00 0.00 91 1044.4
20260506131602 76 140 5.2 5.2 0.00 0.00 0.00 91 1044.4
20260506131058 76 186 2.6 5.2 0.00 0.00 0.00 91 1044.1
20260506130555 76 154 7.0 8.7 0.00 0.00 0.00 92 1043.9
20260506130053 75 172 3.5 8.7 0.00 0.00 0.00 93 1044.0
20260506125551 75 180 4.3 7.0 0.00 0.00 0.00 94 1043.9
20260506125048 75 180 3.5 5.2 0.00 0.00 0.00 94 1043.9
20260506124546 74 149 3.5 4.3 0.00 0.00 0.00 95 1043.8
20260506124044 74 176 3.5 4.3 0.00 0.00 0.00 95 1043.8
20260506123541 74 166 1.7 4.3 0.00 0.00 0.00 96 1043.8
20260506123039 73 180 1.7 6.1 0.00 0.00 0.00 96 1043.7
20260506122535 73 132 1.7 3.5 0.00 0.00 0.00 96 1043.6
20260506122034 73 162 0.9 3.5 0.00 0.00 0.00 96 1043.6
20260506121531 73 169 1.7 3.5 0.00 0.00 0.00 96 1043.9
20260506121027 73 164 0.0 4.3 0.00 0.00 0.00 96 1043.9
20260506120525 73 156 3.5 4.3 0.00 0.00 0.00 95 1043.5
20260506120022 73 199 2.6 4.3 0.00 0.00 0.00 95 1043.6
20260506115520 73 165 0.0 3.5 0.00 0.00 0.00 95 1043.6
20260506115018 74 177 2.6 3.5 0.00 0.00 0.00 95 1043.7
20260506114515 74 131 1.7 1.7 0.00 0.00 0.00 95 1043.6
20260506114014 74 154 0.9 2.6 0.00 0.00 0.00 95 1043.7
20260506113511 74 169 2.6 3.5 0.00 0.00 0.00 94 1043.3
20260506113009 74 228 1.7 3.5 0.00 0.00 0.00 94 1043.7
20260506112505 74 188 1.7 4.3 0.00 0.00 0.00 95 1043.8
20260506112003 74 208 2.6 3.5 0.00 0.00 0.00 95 1043.7
20260506111501 74 209 2.6 3.5 0.00 0.00 0.00 95 1043.9
20260506110957 74 186 0.0 1.7 0.00 0.00 0.00 95 1043.8
20260506110455 74 201 1.7 2.6 0.00 0.00 0.00 95 1043.8
20260506105951 74 237 1.7 3.5 0.00 0.00 0.00 95 1043.7
20260506105448 74 175 1.7 1.7 0.00 0.00 0.00 95 1043.8
20260506104945 74 225 2.6 3.5 0.00 0.00 0.00 95 1043.8
20260506104443 74 230 3.5 4.3 0.00 0.00 0.00 95 1043.6
20260506103941 74 215 0.9 2.6 0.00 0.00 0.00 95 1043.9
20260506103438 74 229 2.6 3.5 0.00 0.00 0.00 95 1043.6
20260506102935 74 244 2.6 4.3 0.00 0.00 0.00 95 1043.8
20260506102433 74 228 1.7 4.3 0.00 0.00 0.00 95 1043.5
20260506101930 74 180 2.6 4.3 0.00 0.00 0.00 95 1043.6
20260506101426 74 170 2.6 3.5 0.00 0.00 0.00 94 1043.4
20260506100924 74 207 3.5 4.3 0.00 0.00 0.00 94 1043.5
20260506100422 74 177 2.6 4.3 0.00 0.00 0.00 94 1043.4
20260506095920 74 183 0.0 3.5 0.00 0.00 0.00 93 1043.2
20260506095418 75 217 6.1 7.0 0.00 0.00 0.00 93 1043.4
20260506094914 75 221 0.0 3.5 0.00 0.00 0.00 92 1043.3
20260506094413 75 201 0.0 6.1 0.00 0.00 0.00 92 1043.0
20260506093910 75 193 2.6 6.1 0.00 0.00 0.00 92 1043.1
20260506093407 75 206 2.6 5.2 0.00 0.00 0.00 91 1042.9
20260506092905 75 187 4.3 5.2 0.00 0.00 0.00 91 1042.8
20260506092403 75 135 2.6 4.3 0.00 0.00 0.00 91 1042.8
20260506091859 75 168 3.5 6.1 0.00 0.00 0.00 91 1042.8
20260506091357 75 186 3.5 4.3 0.00 0.00 0.00 91 1042.8
20260506090854 75 195 1.7 4.3 0.00 0.00 0.00 91 1042.6
20260506090352 75 166 3.5 5.2 0.00 0.00 0.00 91 1042.9
20260506085848 75 180 2.6 6.1 0.00 0.00 0.00 91 1042.7
20260506085345 75 207 5.2 5.2 0.00 0.00 0.00 90 1042.6
20260506084841 75 223 4.3 11.3 0.00 0.00 0.00 90 1042.4
20260506084338 75 221 3.5 5.2 0.00 0.00 0.00 90 1042.7
20260506083835 75 222 2.6 7.0 0.00 0.00 0.00 90 1042.7
20260506083332 75 210 6.1 7.8 0.00 0.00 0.00 90 1042.5
20260506082830 75 184 3.5 7.0 0.00 0.00 0.00 90 1042.7
20260506082326 75 210 3.5 9.6 0.00 0.00 0.00 90 1042.4
20260506081822 75 207 7.0 8.7 0.00 0.00 0.00 90 1042.5
20260506081320 75 199 7.0 13.0 0.00 0.00 0.00 90 1042.5
20260506080817 75 216 2.6 7.8 0.00 0.00 0.00 90 1042.4
20260506080314 75 196 7.0 12.2 0.00 0.00 0.00 90 1042.4
20260506073258 75 204 3.5 13.0 0.00 0.00 0.00 91 1042.8
20260506072755 75 172 10.4 13.9 0.00 0.00 0.00 91 1042.6
20260506072252 75 216 3.5 10.4 0.00 0.00 0.00 91 1043.0
20260506071750 75 223 9.6 13.0 0.00 0.00 0.00 91 1043.0
20260506071248 75 228 7.0 16.5 0.00 0.00 0.00 91 1043.1
20260506070744 75 161 7.0 14.8 0.00 0.00 0.00 91 1043.1
20260506070241 75 162 5.2 13.9 0.00 0.00 0.00 91 1043.0
20260506062218 75 232 4.3 12.2 0.00 0.00 0.00 91 1042.7
20260506061714 75 176 7.0 12.2 0.00 0.00 0.00 91 1042.9
20260506061212 75 180 0.0 13.9 0.00 0.00 0.00 91 1042.7
20260506060711 75 209 2.6 15.6 0.00 0.00 0.00 91 1042.7
20260506060207 75 163 4.3 14.8 0.00 0.00 0.00 91 1042.6
20260506051139 76 172 6.1 14.8 0.00 0.00 0.00 90 1042.9
20260506050638 76 159 5.2 9.6 0.00 0.00 0.00 90 1042.8
20260506050134 76 146 6.1 12.2 0.00 0.00 0.00 90 1042.7
20260506045127 76 162 5.2 12.2 0.00 0.00 0.00 90 1042.7
20260506044625 76 220 9.6 17.4 0.00 0.00 0.00 90 1042.9
20260506044122 76 167 4.3 9.6 0.00 0.00 0.00 90 1042.8
20260506043619 76 186 9.6 13.9 0.00 0.00 0.00 89 1042.7
20260506043117 76 172 14.8 15.6 0.00 0.00 0.00 90 1042.9
20260506042616 76 150 9.6 11.3 0.00 0.00 0.00 90 1042.7
20260506042114 76 178 2.6 6.1 0.00 0.00 0.00 90 1042.6
20260506041612 76 180 0.0 7.8 0.00 0.00 0.00 90 1042.6
20260506041108 76 180 5.2 5.2 0.00 0.00 0.00 90 1042.4
20260506040606 76 150 5.2 7.0 0.00 0.00 0.00 90 1042.7
20260506035559 76 209 2.6 4.3 0.00 0.00 0.00 89 1042.4
20260506035056 76 220 2.6 7.8 0.00 0.00 0.00 89 1042.2
20260506034553 77 155 3.5 10.4 0.00 0.00 0.00 89 1042.2
20260506034050 77 139 6.1 10.4 0.00 0.00 0.00 88 1042.2
20260506033548 77 165 10.4 10.4 0.00 0.00 0.00 88 1042.3
20260506033044 77 180 4.3 7.8 0.00 0.00 0.00 87 1042.2
20260506032542 77 180 4.3 13.0 0.00 0.00 0.00 87 1042.4
20260506032038 77 204 3.5 10.4 0.00 0.00 0.00 87 1042.3
20260506031536 77 144 2.6 7.0 0.00 0.00 0.00 87 1042.2
20260506031033 77 202 1.7 7.0 0.00 0.00 0.00 86 1041.9
20260506030531 77 166 2.6 7.0 0.00 0.00 0.00 86 1041.7
20260506030028 77 202 3.5 6.1 0.00 0.00 0.00 86 1041.8
20260506025525 77 158 4.3 4.3 0.00 0.00 0.00 86 1041.8
20260506025021 77 172 1.7 6.1 0.00 0.00 0.00 85 1042.0
20260506024518 77 157 1.7 4.3 0.00 0.00 0.00 85 1041.8
20260506024014 77 161 1.7 5.2 0.00 0.00 0.00 85 1041.7
20260506023510 77 199 1.7 2.6 0.00 0.00 0.00 86 1041.7
20260506023008 77 150 2.6 4.3 0.00 0.00 0.00 86 1041.3
20260506012627 80 165 1.7 5.2 0.00 0.00 0.00 80 1040.8
20260506012124 80 165 1.7 5.2 0.00 0.00 0.00 80 1040.8
20260506011622 80 165 1.7 5.2 0.00 0.00 0.00 80 1040.8
20260506011118 80 172 1.7 7.8 0.00 0.00 0.00 79 1040.5
20260506010617 80 170 1.7 4.3 0.00 0.00 0.00 79 1040.6
20260506010113 80 169 4.3 6.1 0.00 0.00 0.00 78 1040.5
20260506005611 81 180 7.0 8.7 0.00 0.00 0.00 77 1040.5
20260506005107 81 162 6.1 6.1 0.00 0.00 0.00 77 1040.6
20260506004604 81 199 5.2 7.0 0.00 0.00 0.00 76 1040.9
20260506004100 82 226 4.3 7.8 0.00 0.00 0.00 75 1040.6
20260506003557 82 201 5.2 7.0 0.00 0.00 0.00 75 1040.8
20260506003053 82 228 3.5 5.2 0.00 0.00 0.00 75 1040.5
20260506002549 82 132 0.0 8.7 0.00 0.00 0.00 75 1040.6
20260506002045 82 156 4.3 7.8 0.00 0.00 0.00 75 1040.6